Date,TemperatureHighF,TemperatureAvgF,TemperatureLowF,DewpointHighF,DewpointAvgF,DewpointLowF,HumidityHigh,HumidityAvg,HumidityLow,PressureMaxIn,PressureMinIn,WindSpeedMaxMPH,WindSpeedAvgMPH,GustSpeedMaxMPH,PrecipitationSumIn
2013-5-1,84.3,76.2,69.7,56.4,47.9,34.2,55,38,19,30.10,30.00,5,1,13,0.00
2013-5-2,79.7,72.2,65.9,62.1,55.5,45.3,84,57,30,30.05,29.93,8,2,17,0.02
2013-5-3,78.2,70.9,63.5,60.7,57.1,50.5,87,63,38,29.98,29.93,5,1,12,0.00
2013-5-4,84.6,73.3,65.1,61.7,56.3,48.1,82,57,34,30.03,29.91,6,1,10,0.02
2013-5-5,81.3,73.2,63.2,60.8,56.5,51.3,83,58,37,29.99,29.93,7,2,12,0.05
2013-5-6,71.2,66.1,61.0,62.4,58.4,54.4,84,76,68,30.05,29.91,9,2,15,0.05
2013-5-7,68.6,63.1,58.6,58.5,56.3,53.2,88,79,66,30.07,30.02,6,1,13,0.04
2013-5-8,71.0,65.4,60.7,59.6,57.5,52.3,88,76,53,30.05,29.95,5,1,13,0.00
2013-5-9,75.4,68.4,61.6,59.3,56.6,50.0,88,67,44,30.02,29.96,7,1,13,0.00
2013-5-10,71.7,67.0,62.6,61.5,58.9,55.8,90,76,59,30.02,29.97,5,1,10,0.00
2013-5-11,69.7,65.2,61.3,61.0,57.9,52.3,89,78,65,30.00,29.91,7,2,14,0.00
2013-5-12,69.3,63.7,59.6,57.2,54.5,50.8,84,73,55,29.94,29.88,7,2,13,0.00
2013-5-13,71.5,64.4,59.9,57.8,52.9,41.3,86,67,50,30.01,29.90,8,2,15,0.00
2013-5-14,73.0,66.9,58.0,54.8,45.9,34.7,73,48,26,30.04,29.95,6,2,15,0.00
2013-5-15,72.1,65.2,60.9,58.4,54.3,41.0,84,69,36,29.94,29.76,3,1,9,0.00
2013-5-16,80.7,70.1,64.4,62.5,56.9,49.5,90,64,44,29.76,29.55,6,2,15,0.07
2013-5-17,69.1,65.1,61.2,62.1,57.9,53.7,91,78,61,29.99,29.61,7,2,16,0.07
2013-5-18,83.6,71.1,59.1,55.7,50.7,36.8,81,53,23,30.04,29.89,3,1,12,0.00
2013-5-19,72.8,66.2,61.4,61.9,54.2,45.7,86,66,49,30.12,29.86,10,4,20,0.00
2013-5-20,68.7,63.9,59.1,58.1,54.4,49.6,84,72,54,30.16,30.08,6,1,12,0.00
2013-5-21,79.3,67.3,59.6,57.4,48.3,40.8,79,53,29,30.08,29.85,8,2,14,0.08
2013-5-22,80.9,70.2,60.5,62.6,57.0,52.8,86,64,46,29.84,29.38,8,3,20,0.14
2013-5-23,67.5,62.6,58.9,58.9,56.3,52.9,92,80,60,29.74,29.42,10,5,24,0.12
2013-5-24,63.6,61.1,59.6,56.7,53.1,47.4,86,75,56,29.94,29.74,12,5,21,0.00
2013-5-25,64.0,58.4,52.6,52.3,48.6,45.1,90,71,53,29.97,29.91,9,4,22,0.17
2013-5-26,64.3,59.3,55.9,50.9,46.2,41.5,83,62,47,30.08,29.91,13,5,22,0.03
2013-5-27,66.4,60.9,55.3,51.3,49.0,45.0,80,66,48,30.09,29.96,6,1,13,0.00
2013-5-28,80.7,67.5,57.0,53.2,47.5,37.4,75,51,28,29.96,29.67,7,2,15,0.00
2013-5-29,68.4,63.7,59.4,59.6,52.3,40.4,87,67,42,29.81,29.71,8,3,20,0.00
2013-5-30,64.5,58.4,53.3,51.8,49.0,45.4,86,71,53,29.85,29.77,8,3,16,0.13
2013-5-31,64.5,59.6,53.2,57.7,53.3,49.1,91,80,61,29.86,29.78,8,3,16,0.37